Location: ???????
(38.3360°N, 23.6977°E)
Time: 05:19:43
(UTC+00:00)

ATLAS 2AS CENTAUR R/B - Pass Details

Date: 17 November 2025
Orbit: 1047 x 1163 km, 63.7° (Epoch: 09 December)

Event Time Altitude Azimuth Distance (km) Brightness Sun altitude
Rises 16:29:51 0° 335° (NNW) 3,845 5.8 -15.5°
Reaches altitude 10° 16:33:59 10° 358° (N) 2,874 4.9 -16.3°
Maximum altitude 16:37:35 15° 31° (NNE) 2,530 4.3 -17.0°
Enters shadow 16:38:09 15° 37° (NE) 2,538 4.2 -17.1°
